This is the latest recevied weather packets stored in our database for station/object KK4WXG. If no packets are shown the sender has not sent any weather packets the latest 1 day(s).
| Time | Temp. | Humidity | Pressure | Rain* | Wind** | Luminosity | Snow |
|---|---|---|---|---|---|---|---|
| 1778020045 | 26.67° C | 30% | 1008.2 hPa | 0 mm | 3.58 m/s, 188° | 208 W/m² | - |
| 1778019741 | 26.67° C | 29% | 1008.3 hPa | 0 mm | 3.58 m/s, 180° | 264 W/m² | - |
| 1778019439 | 26.11° C | 31% | 1008.3 hPa | 0 mm | 4.47 m/s, 204° | 148 W/m² | - |
| 1778019135 | 26.11° C | 29% | 1008.2 hPa | 0 mm | 5.81 m/s, 190° | 121 W/m² | - |
| 1778018832 | 26.67° C | 29% | 1008.2 hPa | 0 mm | 6.26 m/s, 215° | 129 W/m² | - |
| 1778018530 | 26.67° C | 29% | 1008.4 hPa | 0 mm | 6.71 m/s, 219° | 147 W/m² | - |
| 1778018228 | 26.67° C | 31% | 1008.2 hPa | 0 mm | 5.36 m/s, 217° | 203 W/m² | - |
| 1778017925 | 26.67° C | 30% | 1008.1 hPa | 0 mm | 5.36 m/s, 213° | 207 W/m² | - |
| 1778017623 | 26.67° C | 30% | 1008.3 hPa | 0 mm | 5.36 m/s, 206° | 232 W/m² | - |
| 1778017320 | 26.67° C | 30% | 1008.4 hPa | 0 mm | 8.05 m/s, 221° | 232 W/m² | - |
| 1778017017 | 26.67° C | 31% | 1008.3 hPa | 0 mm | 4.02 m/s, 207° | 366 W/m² | - |
| 1778016714 | 26.67° C | 31% | 1008.3 hPa | 0 mm | 4.92 m/s, 208° | 384 W/m² | - |
| 1778016410 | 26.67° C | 32% | 1008.3 hPa | 0 mm | 4.47 m/s, 209° | 242 W/m² | - |
| 1778016108 | 26.67° C | 32% | 1008.1 hPa | 0 mm | 4.02 m/s, 212° | 281 W/m² | - |
| 1778015804 | 26.67° C | 31% | 1008.1 hPa | 0 mm | 4.92 m/s, 212° | 216 W/m² | - |
| 1778015502 | 26.67° C | 30% | 1008.1 hPa | 0 mm | 6.26 m/s, 209° | 220 W/m² | - |
| 1778015198 | 26.67° C | 31% | 1008.1 hPa | 0 mm | 7.15 m/s, 206° | 244 W/m² | - |
| 1778014895 | 26.67° C | 33% | 1008.2 hPa | 0 mm | 5.81 m/s, 218° | 294 W/m² | - |
| 1778014593 | 26.67° C | 30% | 1008.3 hPa | 0 mm | 11.18 m/s, 209° | 301 W/m² | - |
| 1778014291 | 27.22° C | 33% | 1008.3 hPa | 0 mm | 6.71 m/s, 218° | 299 W/m² | - |
| 1778013987 | 27.22° C | 32% | 1008.2 hPa | 0 mm | 3.58 m/s, 219° | 420 W/m² | - |
| 1778013685 | 27.22° C | 33% | 1008.2 hPa | 0 mm | 4.47 m/s, 212° | 430 W/m² | - |
| 1778013381 | 27.22° C | 32% | 1008.1 hPa | 0 mm | 6.71 m/s, 205° | 359 W/m² | - |
| 1778013079 | 27.22° C | 33% | 1008.1 hPa | 0 mm | 4.02 m/s, 196° | 373 W/m² | - |
| 1778012774 | 27.22° C | 32% | 1007.9 hPa | 0 mm | 5.36 m/s, 193° | 537 W/m² | - |
* Rain latest hour (hover to see other rain measurements)
** Current wind speed in m/s (hover to see current wind gust speed)